EW9138 Weather Reports


Display with metric or nautical units.
time (UTC)temp
F
wind
direction
speed
MPH
gust
MPH
rain 1hr
in
rain 24hr
in
rain mn
in
humidity
%
barometer
mb
20260505001804 56 262 0.0 0.0 0.00 0.00 0.00 71 1016.6
20260505001304 56 284 0.0 0.0 0.00 0.00 0.00 72 1016.7
20260504235304 57 283 0.0 3.0 0.00 0.00 0.00 72 1016.8
20260504234803 57 283 0.0 3.0 0.00 0.00 0.00 72 1016.8
20260504234304 57 213 0.0 0.0 0.00 0.00 0.00 71 1016.9
20260504233303 58 213 0.0 2.0 0.00 0.00 0.00 70 1016.9
20260504232804 58 350 0.0 2.0 0.00 0.00 0.00 68 1017.0
20260504232304 57 342 0.0 3.0 0.00 0.00 0.00 67 1017.0
20260504231804 57 271 0.0 3.0 0.00 0.00 0.00 67 1017.0
20260504231303 57 272 0.0 3.0 0.00 0.00 0.00 68 1017.1
20260504230804 58 272 0.0 2.0 0.00 0.00 0.00 69 1017.1
20260504225804 58 272 0.0 2.0 0.00 0.00 0.00 69 1017.2
20260504225304 58 272 1.0 2.0 0.00 0.00 0.00 69 1017.2
20260504224804 59 272 1.0 3.0 0.00 0.00 0.00 69 1017.2
20260504224304 59 313 1.0 5.0 0.00 0.00 0.00 66 1017.2
20260504223803 59 281 1.0 5.0 0.00 0.00 0.00 64 1017.2
20260504223303 59 54 0.0 2.0 0.00 0.00 0.00 65 1017.2
20260504221803 59 56 0.0 2.0 0.00 0.00 0.00 66 1017.2
20260504220850 60 296 1.0 3.0 0.00 0.00 0.00 66 1017.3
20260504220305 60 296 2.0 3.0 0.00 0.00 0.00 63 1017.3
20260504215305 60 340 2.0 5.0 0.00 0.00 0.00 63 1017.3
20260504214303 60 17 2.0 3.0 0.00 0.00 0.00 62 1017.4
20260504213804 61 309 2.0 6.0 0.00 0.00 0.00 63 1017.4
20260504213303 61 47 2.0 6.0 0.00 0.00 0.00 63 1017.4
20260504212803 61 59 2.0 6.0 0.00 0.00 0.00 63 1017.5
20260504212304 61 60 2.0 5.0 0.00 0.00 0.00 64 1017.5
20260504211804 61 29 2.0 5.0 0.00 0.00 0.00 64 1017.5
20260504211304 61 47 2.0 5.0 0.00 0.00 0.00 64 1017.5
20260504210803 61 28 2.0 5.0 0.00 0.00 0.00 66 1017.5
20260504205804 61 67 3.0 8.0 0.00 0.00 0.00 67 1017.4
20260504203303 62 105 2.0 5.0 0.00 0.00 0.00 67 1017.3
20260504202305 62 42 3.0 6.0 0.00 0.00 0.00 67 1017.3
20260504201803 62 71 3.0 6.0 0.00 0.00 0.00 67 1017.3
20260504201303 62 76 2.0 6.0 0.00 0.00 0.00 66 1017.2
20260504200305 63 53 2.0 7.0 0.00 0.00 0.00 65 1017.2
20260504195803 63 47 2.0 5.0 0.00 0.00 0.00 65 1017.2
20260504195304 63 70 1.0 5.0 0.00 0.00 0.00 65 1017.2
20260504194804 63 18 1.0 5.0 0.00 0.00 0.00 65 1017.2
20260504194303 63 69 0.0 5.0 0.00 0.00 0.00 65 1017.1
20260504193303 64 78 0.0 2.0 0.00 0.00 0.00 65 1017.1
20260504192804 64 273 0.0 2.0 0.00 0.00 0.00 65 1016.9
20260504192304 64 273 1.0 3.0 0.00 0.00 0.00 64 1016.9
20260504191304 64 229 1.0 3.0 0.00 0.00 0.00 64 1016.8
20260504190804 64 171 1.0 3.0 0.00 0.00 0.00 64 1016.8
20260504190304 64 49 2.0 2.0 0.00 0.00 0.00 64 1016.8
20260504185804 64 49 2.0 5.0 0.00 0.00 0.00 63 1016.7
20260504185305 64 49 2.0 5.0 0.00 0.00 0.00 63 1016.7
20260504184803 65 58 2.0 5.0 0.00 0.00 0.00 63 1016.7
20260504184303 65 43 2.0 5.0 0.00 0.00 0.00 62 1016.7
20260504183804 65 48 2.0 5.0 0.00 0.00 0.00 61 1016.7
20260504183304 66 255 2.0 5.0 0.00 0.00 0.00 60 1016.7
20260504182304 66 31 2.0 3.0 0.00 0.00 0.00 59 1016.7
20260504181803 66 48 2.0 3.0 0.00 0.00 0.00 59 1016.7
20260504181304 66 47 2.0 5.0 0.00 0.00 0.00 58 1016.5
20260504180804 66 65 2.0 5.0 0.00 0.00 0.00 58 1016.5
20260504180303 66 335 3.0 5.0 0.00 0.00 0.00 57 1016.5
20260504175804 66 30 3.0 6.0 0.00 0.00 0.00 56 1016.3
20260504175304 66 65 2.0 6.0 0.00 0.00 0.00 56 1016.3
20260504174804 67 59 2.0 6.0 0.00 0.00 0.00 55 1016.3
20260504174303 67 53 2.0 5.0 0.00 0.00 0.00 54 1016.3
20260504173804 67 60 2.0 5.0 0.00 0.00 0.00 52 1016.3
20260504173304 68 66 2.0 5.0 0.00 0.00 0.00 52 1016.3
20260504172304 68 41 2.0 5.0 0.00 0.00 0.00 51 1016.3
20260504171803 68 42 2.0 5.0 0.00 0.00 0.00 51 1016.3
20260504171304 68 50 2.0 5.0 0.00 0.00 0.00 50 1016.3
20260504170803 69 69 2.0 5.0 0.00 0.00 0.00 52 1016.3
20260504170303 69 70 1.0 3.0 0.00 0.00 0.00 51 1016.3
20260504160305 71 68 2.0 5.0 0.00 0.00 0.00 49 1016.4
20260504150806 75 73 2.0 8.0 0.00 0.00 0.00 38 1016.4
20260504150304 76 348 3.0 8.0 0.00 0.00 0.00 38 1016.4
20260504141305 75 51 2.0 6.0 0.00 0.00 0.00 37 1016.8
20260504140303 75 54 2.0 8.0 0.00 0.00 0.00 36 1016.8
20260504130804 75 343 2.0 6.0 0.00 0.00 0.00 39 1017.2
20260504130304 75 73 2.0 5.0 0.00 0.00 0.00 38 1017.2
20260504120304 74 252 3.0 8.0 0.00 0.00 0.00 39 1017.6
20260504110304 72 258 2.0 6.0 0.00 0.00 0.00 45 1017.6
20260504100307 67 172 2.0 6.0 0.00 0.00 0.00 55 1018.3
20260504081804 60 246 2.0 3.0 0.00 0.00 0.00 67 1019.0
20260504081305 59 297 0.0 3.0 0.00 0.00 0.00 67 1018.9
20260504080305 59 307 1.0 3.0 0.00 0.00 0.00 69 1018.9
20260504070306 55 242 1.0 5.0 0.00 0.00 0.00 75 1018.9